| time (UTC) | temp C | wind direction | speed KPH | gust KPH | rain 1hr cm | rain 24hr cm | rain mn cm | humidity % | barometer mb |
| 20260506031540 | 10 | 354 | 12.9 | 22.5 | 0.00 | 0.00 | 0.00 | 78 | 1015.7 |
| 20260506030038 | 10 | 352 | 12.9 | 22.5 | 0.00 | 0.00 | 0.00 | 78 | 1015.8 |
| 20260506024534 | 10 | 23 | 12.9 | 22.5 | 0.00 | 0.00 | 0.00 | 78 | 1015.8 |
| 20260506023035 | 10 | 350 | 12.9 | 24.1 | 0.00 | 0.00 | 0.00 | 78 | 1015.9 |
| 20260506021532 | 10 | 339 | 12.9 | 24.1 | 0.00 | 0.00 | 0.00 | 78 | 1015.9 |
| 20260506020028 | 10 | 25 | 14.5 | 22.5 | 0.00 | 0.00 | 0.00 | 78 | 1015.8 |
| 20260506014529 | 10 | 4 | 17.7 | 27.4 | 0.00 | 0.00 | 0.00 | 79 | 1015.9 |
| 20260506013025 | 10 | 32 | 17.7 | 27.4 | 0.00 | 0.00 | 0.00 | 79 | 1016.0 |
| 20260506011523 | 10 | 356 | 12.9 | 24.1 | 0.00 | 0.00 | 0.00 | 78 | 1016.1 |
| 20260506010022 | 10 | 11 | 14.5 | 24.1 | 0.00 | 0.00 | 0.00 | 78 | 1016.2 |
| 20260506004532 | 10 | 354 | 17.7 | 29.0 | 0.00 | 0.00 | 0.00 | 78 | 1016.2 |
| 20260506003031 | 10 | 20 | 14.5 | 29.0 | 0.00 | 0.00 | 0.00 | 78 | 1016.3 |
| 20260506001517 | 10 | 13 | 17.7 | 24.1 | 0.00 | 0.00 | 0.00 | 78 | 1016.5 |
| 20260506000016 | 10 | 16 | 17.7 | 27.4 | 0.00 | 0.00 | 0.00 | 78 | 1016.5 |
| 20260505234525 | 10 | 8 | 19.3 | 27.4 | 0.00 | 0.00 | 0.00 | 78 | 1016.7 |
| 20260505233012 | 10 | 11 | 14.5 | 27.4 | 0.00 | 0.00 | 0.00 | 77 | 1016.7 |
| 20260505231514 | 10 | 349 | 14.5 | 25.7 | 0.00 | 0.00 | 0.00 | 77 | 1016.6 |
| 20260505230009 | 10 | 324 | 16.1 | 25.7 | 0.00 | 0.00 | 0.00 | 77 | 1016.7 |
| 20260505224508 | 10 | 351 | 17.7 | 29.0 | 0.00 | 0.00 | 0.00 | 77 | 1016.8 |
| 20260505223005 | 10 | 1 | 12.9 | 30.6 | 0.00 | 0.00 | 0.00 | 78 | 1016.8 |
| 20260505221504 | 10 | 355 | 16.1 | 27.4 | 0.00 | 0.00 | 0.00 | 78 | 1016.9 |
| 20260505220011 | 10 | 352 | 19.3 | 30.6 | 0.00 | 0.00 | 0.00 | 78 | 1016.8 |
| 20260505214503 | 10 | 354 | 12.9 | 25.7 | 0.00 | 0.00 | 0.00 | 78 | 1016.8 |
| 20260505213105 | 10 | 339 | 14.5 | 27.4 | 0.00 | 0.00 | 0.00 | 78 | 1017.0 |
| 20260505213001 | 10 | 313 | 14.5 | 27.4 | 0.00 | 0.00 | 0.00 | 78 | 1016.9 |
| 20260505211604 | 10 | 4 | 17.7 | 27.4 | 0.00 | 0.00 | 0.00 | 78 | 1017.1 |
| 20260505211502 | 10 | 344 | 16.1 | 27.4 | 0.00 | 0.00 | 0.00 | 79 | 1017.1 |
| 20260505210059 | 10 | 13 | 16.1 | 27.4 | 0.00 | 0.00 | 0.00 | 79 | 1017.1 |
| 20260505204600 | 10 | 344 | 16.1 | 27.4 | 0.00 | 0.00 | 0.00 | 79 | 1016.9 |
| 20260505203056 | 10 | 8 | 14.5 | 29.0 | 0.00 | 0.00 | 0.00 | 79 | 1016.9 |
| 20260505201554 | 10 | 354 | 16.1 | 25.7 | 0.00 | 0.00 | 0.00 | 79 | 1016.9 |
| 20260505200053 | 10 | 358 | 12.9 | 25.7 | 0.00 | 0.00 | 0.00 | 78 | 1016.7 |
| 20260505194552 | 10 | 349 | 14.5 | 27.4 | 0.00 | 0.00 | 0.00 | 78 | 1016.5 |
| 20260505193056 | 10 | 343 | 19.3 | 29.0 | 0.00 | 0.00 | 0.00 | 78 | 1016.6 |
| 20260505191556 | 10 | 1 | 17.7 | 29.0 | 0.00 | 0.00 | 0.00 | 77 | 1016.5 |
| 20260505190047 | 10 | 354 | 19.3 | 32.2 | 0.00 | 0.00 | 0.00 | 77 | 1016.6 |
| 20260505184545 | 11 | 21 | 17.7 | 29.0 | 0.00 | 0.00 | 0.00 | 76 | 1016.5 |
| 20260505183045 | 11 | 18 | 16.1 | 29.0 | 0.00 | 0.00 | 0.00 | 75 | 1016.6 |
| 20260505181544 | 11 | 15 | 14.5 | 27.4 | 0.00 | 0.00 | 0.00 | 75 | 1016.6 |
| 20260505180051 | 11 | 339 | 12.9 | 27.4 | 0.00 | 0.00 | 0.00 | 74 | 1016.6 |
| 20260505174555 | 12 | 339 | 14.5 | 25.7 | 0.00 | 0.00 | 0.00 | 73 | 1016.5 |
| 20260505173038 | 13 | 8 | 16.1 | 29.0 | 0.00 | 0.00 | 0.00 | 74 | 1016.6 |
| 20260505171537 | 13 | 336 | 20.9 | 29.0 | 0.00 | 0.00 | 0.00 | 73 | 1016.5 |
| 20260505170039 | 13 | 11 | 19.3 | 27.4 | 0.00 | 0.00 | 0.00 | 74 | 1016.6 |
| 20260505164539 | 13 | 18 | 12.9 | 25.7 | 0.00 | 0.00 | 0.00 | 73 | 1016.7 |
| 20260505163039 | 14 | 354 | 14.5 | 27.4 | 0.00 | 0.00 | 0.00 | 73 | 1016.7 |
| 20260505161534 | 14 | 349 | 14.5 | 27.4 | 0.00 | 0.00 | 0.00 | 73 | 1016.8 |
| 20260505153040 | 15 | 11 | 14.5 | 25.7 | 0.00 | 0.00 | 0.00 | 73 | 1016.9 |
| 20260505151534 | 15 | 53 | 16.1 | 27.4 | 0.00 | 0.00 | 0.00 | 72 | 1016.8 |
| 20260505130118 | 14 | 32 | 19.3 | 33.8 | 0.00 | 0.00 | 0.00 | 76 | 1016.7 |
| 20260505124518 | 14 | 41 | 22.5 | 29.0 | 0.00 | 0.00 | 0.00 | 77 | 1016.7 |
| 20260505123016 | 14 | 49 | 19.3 | 33.8 | 0.00 | 0.00 | 0.00 | 78 | 1016.7 |
| 20260505121516 | 14 | 28 | 22.5 | 33.8 | 0.00 | 0.00 | 0.00 | 79 | 1016.5 |
| 20260505120013 | 14 | 46 | 20.9 | 33.8 | 0.00 | 0.00 | 0.00 | 80 | 1016.4 |
| 20260505114514 | 13 | 46 | 19.3 | 32.2 | 0.00 | 0.00 | 0.00 | 80 | 1016.4 |
| 20260505113010 | 13 | 46 | 17.7 | 30.6 | 0.00 | 0.00 | 0.00 | 80 | 1016.4 |
| 20260505111509 | 13 | 49 | 17.7 | 30.6 | 0.00 | 0.00 | 0.00 | 80 | 1016.3 |
| 20260505101503 | 12 | 63 | 24.1 | 38.6 | 0.00 | 0.00 | 0.00 | 81 | 1016.5 |
| 20260505100058 | 12 | 37 | 24.1 | 38.6 | 0.00 | 0.00 | 0.00 | 83 | 1016.4 |
| 20260505094555 | 12 | 34 | 22.5 | 38.6 | 0.00 | 0.00 | 0.00 | 85 | 1016.5 |
| 20260505093053 | 12 | 34 | 22.5 | 38.6 | 0.00 | 0.00 | 0.00 | 86 | 1016.3 |
| 20260505091551 | 12 | 47 | 22.5 | 37.0 | 0.00 | 0.00 | 0.00 | 87 | 1016.2 |
| 20260505090054 | 12 | 41 | 20.9 | 37.0 | 0.00 | 0.00 | 0.00 | 87 | 1016.2 |
| 20260505084551 | 12 | 49 | 27.4 | 37.0 | 0.00 | 0.00 | 0.00 | 87 | 1016.2 |
| 20260505083100 | 12 | 11 | 25.7 | 35.4 | 0.00 | 0.00 | 0.00 | 88 | 1016.1 |
| 20260505081548 | 11 | 46 | 20.9 | 33.8 | 0.00 | 0.00 | 0.00 | 88 | 1016.0 |
| 20260505080042 | 11 | 52 | 22.5 | 30.6 | 0.00 | 0.00 | 0.00 | 88 | 1016.1 |
| 20260505074543 | 11 | 37 | 19.3 | 32.2 | 0.00 | 0.00 | 0.00 | 89 | 1016.0 |
| 20260505073038 | 11 | 27 | 17.7 | 27.4 | 0.00 | 0.00 | 0.00 | 88 | 1015.9 |
| 20260505071540 | 11 | 21 | 19.3 | 29.0 | 0.00 | 0.00 | 0.00 | 88 | 1015.9 |
| 20260505070045 | 11 | 18 | 14.5 | 25.7 | 0.00 | 0.00 | 0.00 | 89 | 1015.8 |
| 20260505064551 | 11 | 14 | 16.1 | 27.4 | 0.00 | 0.00 | 0.00 | 89 | 1015.8 |
| 20260505063033 | 11 | 25 | 14.5 | 30.6 | 0.00 | 0.00 | 0.00 | 89 | 1015.6 |
| 20260505061538 | 11 | 14 | 17.7 | 27.4 | 0.00 | 0.00 | 0.00 | 89 | 1015.6 |
| 20260505060030 | 11 | 41 | 16.1 | 27.4 | 0.00 | 0.00 | 0.00 | 89 | 1015.6 |
| 20260505054526 | 10 | 33 | 16.1 | 27.4 | 0.00 | 0.05 | 0.00 | 89 | 1015.5 |
| 20260505053023 | 10 | 27 | 16.1 | 27.4 | 0.00 | 0.05 | 0.00 | 89 | 1015.6 |
| 20260505051521 | 10 | 13 | 12.9 | 22.5 | 0.00 | 0.05 | 0.00 | 89 | 1015.5 |
| 20260505041525 | 10 | 15 | 11.3 | 20.9 | 0.00 | 0.05 | 0.00 | 89 | 1015.5 |
| 20260505040015 | 10 | 37 | 11.3 | 22.5 | 0.00 | 0.05 | 0.00 | 89 | 1015.6 |
| 20260505034513 | 10 | 30 | 11.3 | 24.1 | 0.00 | 0.05 | 0.00 | 89 | 1015.6 |
| 20260505033015 | 10 | 40 | 11.3 | 22.5 | 0.00 | 0.05 | 0.00 | 88 | 1015.5 |